Simultaneous Nadir Overpasses (SNOs) Predictions

Prediction of SNOs between NOAA-19 and NPP Satellite Orbit:

Table of predicted SNOs for the next 14.0 days since TLE Epoch: 8/24/2016
Index Date (NOAA-19) Time (NOAA-19) Lat,Lon (NOAA-19) SZA (NOAA-19 ) Date (NPP) Time (NPP) Lat,Lon (NPP) SZA (NPP ) Distance(km) Time Diff (sec)
1 08/26/2016 06:04:23 80.98, 36.38 74.39 08/26/2016 06:05:32 80.97, 36.23 74.37 2.85 69
2 08/26/2016 06:55:30 -80.97,-156.68 105.57 08/26/2016 06:56:17 -80.97,-156.50 105.61 3.02 47
3 08/26/2016 07:46:25 80.98, 10.86 74.42 08/26/2016 07:47:02 80.97, 10.80 74.40 1.23 37
4 08/26/2016 08:37:31 -80.98, 178.18 105.59 08/26/2016 08:37:47 -80.97, 178.07 105.58 1.98 16
5 08/26/2016 09:28:27 80.98, -14.65 74.44 08/26/2016 09:28:32 80.97, -14.63 74.44 0.51 5
6 08/26/2016 10:19:33 -80.98, 152.67 105.56 08/26/2016 10:19:17 -80.98, 152.64 105.55 0.38 16
7 08/26/2016 11:10:29 80.98, -40.17 74.47 08/26/2016 11:10:02 80.98, -40.05 74.47 2.10 27
8 08/26/2016 12:01:35 -80.98, 127.15 105.54 08/26/2016 12:00:47 -80.98, 127.22 105.52 1.21 48




NCC Satellite Simultaneous Nadir Overpasses (SNOs) Prediction Service
